GW4449 Weather Reports


Display with metric or nautical units.
time (UTC)temp
F
wind
direction
speed
MPH
gust
MPH
rain 1hr
in
rain 24hr
in
rain mn
in
humidity
%
barometer
mb
20260505083510 55 138 1.0 2.0 0.00 0.00 0.00 81 1015.4
20260505083026 55 127 0.0 2.0 0.00 0.00 0.00 81 1015.5
20260505082507 55 138 1.0 2.0 0.00 0.00 0.00 81 1015.5
20260505082008 55 107 0.0 2.0 0.00 0.00 0.00 81 1015.5
20260505081520 55 105 0.0 3.0 0.00 0.00 0.00 80 1015.4
20260505081008 55 141 1.0 3.0 0.00 0.00 0.00 80 1015.3
20260505080509 56 143 1.0 3.0 0.00 0.00 0.00 80 1015.2
20260505080021 56 118 1.0 3.0 0.00 0.00 0.00 80 1015.2
20260505075509 56 120 0.0 2.0 0.00 0.00 0.00 80 1015.2
20260505075008 56 101 0.0 2.0 0.00 0.00 0.00 80 1015.1
20260505074526 56 136 0.0 3.0 0.00 0.00 0.00 80 1015.1
20260505074010 56 148 0.0 3.0 0.00 0.00 0.00 80 1015.0
20260505073510 56 122 1.0 2.0 0.00 0.00 0.00 80 1015.0
20260505073008 56 138 1.0 2.0 0.00 0.00 0.00 79 1014.9
20260505072509 56 121 0.0 2.0 0.00 0.00 0.00 79 1014.9
20260505072004 57 131 0.0 2.0 0.00 0.00 0.00 79 1014.8
20260505071516 57 134 0.0 2.0 0.00 0.00 0.00 79 1014.8
20260505071007 57 130 1.0 2.0 0.00 0.00 0.00 79 1014.7
20260505070506 57 128 1.0 4.0 0.00 0.00 0.00 79 1014.7
20260505070022 57 133 1.0 4.0 0.00 0.00 0.00 79 1014.7
20260505065511 57 132 2.0 4.0 0.00 0.00 0.00 78 1014.7
20260505065009 58 109 1.0 2.0 0.00 0.00 0.00 78 1014.7
20260505064523 58 140 1.0 2.0 0.00 0.00 0.00 77 1014.6
20260505064009 58 92 0.0 2.0 0.00 0.00 0.00 77 1014.5
20260505063508 59 105 0.0 2.0 0.00 0.00 0.00 76 1014.4
20260505063028 59 101 0.0 2.0 0.00 0.00 0.00 75 1014.3
20260505062517 59 128 1.0 2.0 0.00 0.00 0.00 1014.2
20260505062008 60 219 0.0 2.0 0.00 0.00 0.00 1014.1
20260505061514 60 191 0.0 3.0 0.00 0.00 0.00 1014.1
20260505061008 60 215 0.0 3.0 0.00 0.00 0.00 1014.0
20260505060507 60 165 0.0 2.0 0.00 0.00 0.00 1013.9
20260505060016 61 219 1.0 2.0 0.00 0.00 0.00 1014.0
20260505055507 61 207 0.0 2.0 0.00 0.00 0.00 72 1013.9
20260505055009 61 196 0.0 2.0 0.00 0.00 0.00 72 1013.9
20260505054524 61 95 0.0 2.0 0.00 0.00 0.00 72 1013.9
20260505054011 61 336 0.0 3.0 0.00 0.00 0.00 72 1013.9
20260505053510 62 297 1.0 3.0 0.00 0.00 0.00 71 1013.8
20260505053028 62 9 0.0 4.0 0.00 0.00 0.00 71 1013.7
20260505052507 62 271 0.0 4.0 0.00 0.00 0.00 71 1013.7
20260505052013 62 5 0.0 3.0 0.00 0.00 0.00 71 1013.7
20260505051551 62 175 0.0 3.0 0.00 0.00 0.00 71 1013.6
20260505051014 63 317 0.0 2.0 0.00 0.00 0.00 71 1013.6
20260505050509 63 30 1.0 2.0 0.00 0.00 0.00 71 1013.5
20260505041528 65 119 0.0 2.0 0.00 0.00 0.00 69 1012.9
20260505041007 66 119 0.0 2.0 0.00 0.00 0.00 68 1012.9
20260505040510 66 153 0.0 2.0 0.00 0.00 0.00 68 1012.8
20260505040030 67 157 0.0 2.0 0.00 0.00 0.00 67 1012.7
20260505035510 67 148 0.0 2.0 0.00 0.00 0.00 66 1012.6
20260505035004 67 130 0.0 2.0 0.00 0.00 0.00 66 1012.4
20260505034524 67 129 1.0 3.0 0.00 0.00 0.00 66 1012.4
20260505034007 67 162 1.0 4.0 0.00 0.00 0.00 66 1012.3
20260505033508 68 135 1.0 4.0 0.00 0.00 0.00 66 1012.2
20260505033028 68 142 0.0 3.0 0.00 0.00 0.00 66 1012.2
20260505032508 68 160 1.0 3.0 0.00 0.00 0.00 66 1012.2
20260505032009 69 195 0.0 3.0 0.00 0.00 0.00 65 1012.1
20260505031525 69 235 1.0 3.0 0.00 0.00 0.00 64 1012.1
20260505031011 69 277 1.0 4.0 0.00 0.00 0.00 64 1012.1
20260505030508 69 221 2.0 4.0 0.00 0.00 0.00 63 1011.9
20260505030030 70 204 1.0 5.0 0.00 0.00 0.00 63 1011.8
20260505025514 70 220 2.0 5.0 0.00 0.00 0.00 63 1011.9
20260505025011 70 196 2.0 5.0 0.00 0.00 0.00 63 1011.8
20260505024529 70 179 2.0 6.0 0.00 0.00 0.00 63 1011.7
20260505024006 71 257 2.0 6.0 0.00 0.00 0.00 62 1011.7
20260505023508 71 200 1.0 5.0 0.00 0.00 0.00 62 1011.7
20260505023023 72 254 2.0 5.0 0.00 0.00 0.00 62 1011.7
20260505022509 72 173 1.0 5.0 0.00 0.00 0.00 62 1011.6
20260505022008 72 207 2.0 5.0 0.00 0.00 0.00 61 1011.6
20260505021526 72 153 3.0 5.0 0.00 0.00 0.00 61 1011.6
20260505021009 73 204 0.0 5.0 0.00 0.00 0.00 60 1011.5
20260505020511 73 155 3.0 6.0 0.00 0.00 0.00 60 1011.6
20260505020028 73 175 1.0 8.0 0.00 0.00 0.00 59 1011.7
20260505015513 73 122 2.0 9.0 0.00 0.00 0.00 59 1011.7
20260505015012 74 211 3.0 9.0 0.00 0.00 0.00 58 1011.6
20260505014530 74 213 1.0 5.0 0.00 0.00 0.00 59 1011.6
20260505014014 74 172 2.0 6.0 0.00 0.00 0.00 59 1011.6
20260505013508 73 153 2.0 6.0 0.00 0.00 0.00 59 1011.6
20260505013030 73 146 3.0 6.0 0.00 0.00 0.00 59 1011.6
20260505012508 74 244 3.0 5.0 0.00 0.00 0.00 58 1011.7
20260505012009 74 211 1.0 4.0 0.00 0.00 0.00 59 1011.7
20260505011526 74 204 1.0 6.0 0.00 0.00 0.00 59 1011.9
20260505011009 74 237 2.0 6.0 0.00 0.00 0.00 58 1011.9
20260505010512 75 151 1.0 5.0 0.00 0.00 0.00 58 1011.9
20260505010029 74 105 0.0 7.0 0.00 0.00 0.00 58 1011.9
20260505005509 74 189 4.0 7.0 0.00 0.00 0.00 58 1012.0
20260505005012 74 219 3.0 7.0 0.00 0.00 0.00 58 1012.0
20260505004526 74 250 2.0 7.0 0.00 0.00 0.00 58 1012.0
20260505004011 74 204 2.0 7.0 0.00 0.00 0.00 58 1012.0
20260505003518 75 188 2.0 5.0 0.00 0.00 0.00 57 1012.0
20260505003028 75 263 1.0 5.0 0.00 0.00 0.00 57 1012.0
20260505002509 74 146 1.0 6.0 0.00 0.00 0.00 57 1012.0
20260505002011 74 218 2.0 6.0 0.00 0.00 0.00 57 1012.1
20260505001524 74 202 2.0 6.0 0.00 0.00 0.00 57 1012.1
20260505001006 75 130 2.0 5.0 0.00 0.00 0.00 57 1012.1
20260505000508 75 191 1.0 6.0 0.00 0.00 0.00 57 1012.2
20260505000029 75 171 2.0 6.0 0.00 0.00 0.00 57 1012.2
20260504235508 74 227 1.0 7.0 0.00 0.00 0.00 57 1012.2
20260504235012 74 190 2.0 7.0 0.00 0.00 0.00 56 1012.3
20260504234532 75 221 1.0 6.0 0.00 0.00 0.00 56 1012.3
20260504234010 75 64 1.0 6.0 0.00 0.00 0.00 56 1012.3
20260504233511 74 151 3.0 7.0 0.00 0.00 0.00 57 1012.3
20260504233028 74 207 3.0 8.0 0.00 0.00 0.00 57 1012.4
20260504232509 74 211 1.0 8.0 0.00 0.00 0.00 57 1012.4
20260504232013 75 203 3.0 8.0 0.00 0.00 0.00 55 1012.4
20260504231520 76 186 2.0 5.0 0.00 0.00 0.00 55 1012.4
20260504231008 75 144 2.0 9.0 0.00 0.00 0.00 55 1012.4
20260504230507 74 158 3.0 9.0 0.00 0.00 0.00 56 1012.5
20260504230026 75 199 4.0 9.0 0.00 0.00 0.00 54 1012.6
20260504225514 75 24 1.0 9.0 0.00 0.00 0.00 56 1012.6
20260504225011 75 212 4.0 7.0 0.00 0.00 0.00 54 1012.7
20260504224509 76 212 0.0 4.0 0.00 0.00 0.00 54 1012.8
20260504224003 76 215 1.0 5.0 0.00 0.00 0.00 52 1012.9
20260504223504 75 18 2.0 5.0 0.00 0.00 0.00 53 1013.0
20260504223014 74 281 1.0 5.0 0.00 0.00 0.00 57 1013.0
20260504222506 74 122 2.0 7.0 0.00 0.00 0.00 56 1013.1
20260504222011 73 220 2.0 7.0 0.00 0.00 0.00 58 1013.2
20260504221520 73 207 3.0 6.0 0.00 0.00 0.00 56 1013.1
20260504221009 73 256 2.0 4.0 0.00 0.00 0.00 56 1013.3
20260504220509 73 347 1.0 9.0 0.00 0.00 0.00 55 1013.3
20260504220025 72 229 3.0 9.0 0.00 0.00 0.00 56 1013.4
20260504215509 72 97 2.0 6.0 0.00 0.00 0.00 56 1013.5
20260504215013 73 244 2.0 4.0 0.00 0.00 0.00 56 1013.5
20260504214526 72 232 1.0 5.0 0.00 0.00 0.00 56 1013.6
20260504214008 72 143 2.0 7.0 0.00 0.00 0.00 56 1013.7
20260504213506 72 37 0.0 7.0 0.00 0.00 0.00 58 1013.7
20260504213016 72 183 3.0 6.0 0.00 0.00 0.00 56 1013.8
20260504212505 70 57 2.0 6.0 0.00 0.00 0.00 60 1013.9
20260504212009 69 194 1.0 7.0 0.00 0.00 0.00 59 1013.9
20260504211516 70 178 3.0 8.0 0.00 0.00 0.00 59 1014.0
20260504211007 69 235 4.0 8.0 0.00 0.00 0.00 59 1014.0
20260504210510 70 120 1.0 3.0 0.00 0.00 0.00 59 1014.1
20260504210026 69 92 1.0 3.0 0.00 0.00 0.00 60 1014.1
20260504205512 69 103 1.0 5.0 0.00 0.00 0.00 61 1014.2
20260504205008 67 287 1.0 6.0 0.00 0.00 0.00 63 1014.3
20260504204530 67 234 1.0 6.0 0.00 0.00 0.00 63 1014.4
20260504204011 67 173 3.0 8.0 0.00 0.00 0.00 63 1014.4
20260504203513 67 173 4.0 8.0 0.00 0.00 0.00 62 1014.4
20260504203038 67 122 2.0 7.0 0.00 0.00 0.00 62 1014.5
20260504202507 68 152 1.0 6.0 0.00 0.00 0.00 63 1014.6
20260504202004 68 207 2.0 6.0 0.00 0.00 0.00 62 1014.6